Aérodrome :
LOGIN :

S'inscrire | Disclaimer

   EN    FR    IT 

 










Légende :    VFR   VFR Marginal   IFR   IFR Intensif   IFR Très Intensif
Visi : 
Plafond : 
>= 8 km
>= 3000ft
5 à 8 km
1000 à 3000 ft
1500m à 5 km
500 à 1000 ft
800 à 1500m
200 à 500 ft
< 800m
< 200 ft
Symboles :   Orages  Brouillard  Fortes neiges  Fortes précipitations  Vent > 20 kt
SIGMETs :   Divers  Orages  Givrage  Turbulence  Onde Orograph.  Cendres Volcan.







- Altitude de l'aérodrome : 12 ft
- Code IATA : NCE
- Voir les cartes d'approche


LFMN - Nice

DERNIER METAR :
  • 150130Z 32009KT 9999 BKN053 08/02 Q1016 NOSIG

METARs EXPIRÉS :
  • 150100Z 32009KT 9999 BKN063 08/02 Q1015 NOSIG
  • 150030Z 33010KT 9999 BKN063 08/02 Q1015 NOSIG
  • 150000Z 32011KT 9999 BKN063 08/02 Q1015 NOSIG
  • 142330Z 32010KT 9999 BKN063 08/02 Q1015 NOSIG
  • 142300Z 32011KT 9999 BKN063 08/02 Q1015 NOSIG

TAF TAF LFMN
Valide du 14 à 21h jusqu'au 16 à 03h UTC


142000Z 1421/1603 34008KT 9999 BKN060
BECMG 1514/1516 24010KT
BECMG 1518/1520 34008KT
ATIS : +33 4 93 17 21 16
Pas de NOTAMs connus pour ce terrain.



MET'MAP, la Météo Aéronautique d'un coup d'oeil ! - Copyright ORBIFLY Décembre 2007 - Disclaimer

ORBIFLY MET'MAP TEAM :

Programmation & Développement : Alexandra Zaïnal
Conception & Développement : Baudouin d'Aumeries
Co-Programmation & Développement : Marc-Olivier Méhu
Soutien technique & logistique : Manuel Goepfert

Contact : metmap@orbifly.com




SOURCES & CREDITS :

   NOAA